[[{"header":{"parameterUnit":"m.s-1","parameterCategory":1,"la1":30.2991,"la2":30.254,"lo1":-89.0895,"lo2":-89.0444,"dy":0.0017,"dx":0.0017,"nx":28,"ny":28,"refTime":"2023-10-19T21:00:00:Z","depth":0,"parameterNumber":2,"parameterNumberName":"U-component_of_WINDS"},"data":[0,0,0,0,0,0,0,0,0,0,0,0,0,0,0,0,0,0,0,0,0,0,0,0,0,0,0,0,0,0,0,0,0,0,0,0,0,0,0,0,0,0,0,0,0,0,0,0,0,0,0,0,0,0,0,0,0,0,4.6666,4.6667,0,4.681,4.6812,4.6813,4.6746,4.6742,4.6739,4.6735,4.6887,4.6894,4.6901,0,0,0,0,0,0,0,0,0,0,0,0,0,4.6335,4.6341,4.6666,4.6668,4.6669,4.681,4.6812,4.6814,4.6747,4.6742,4.6738,4.6734,4.6884,4.6893,4.6902,0,0,0,0,0,0,0,0,0,0,0,0,0,4.6479,4.6343,4.6665,4.6653,4.6653,4.6809,4.6812,4.6814,4.6748,4.6742,4.6737,4.6732,4.6881,4.6892,4.6903,4.7081,0,0,4.6937,4.6942,0,0,0,0,0,0,0,0,4.6471,4.6491,4.6653,4.6654,4.6655,4.6754,4.675,4.6904,4.6749,4.6712,4.6735,4.6729,4.6847,4.6861,4.69,4.7088,4.7095,4.6938,4.6945,4.695,4.6953,0,0,0,0,0,0,0,4.6461,4.6485,4.6723,4.6655,4.6656,4.6641,4.6655,4.6779,4.6809,4.6715,4.671,4.6728,4.6847,4.6889,4.6903,4.7097,4.6938,4.6948,4.6955,4.6959,4.7438,4.7444,0,0,0,0,0,0,4.6451,4.6477,4.6718,4.6727,4.6547,4.6651,4.6667,4.6728,4.6807,4.6814,4.6733,4.6724,4.6873,4.689,4.6908,4.7121,4.6949,4.696,4.6966,4.7432,4.7439,4.7446,0,0,0,0,0,0,4.6444,4.6473,4.6713,4.6601,4.663,4.6663,4.6731,4.6734,4.6776,4.682,4.6826,4.6771,4.6869,4.6892,4.7038,4.7125,4.6965,4.6975,4.7425,4.7434,4.7443,4.7549,0,0,0,0,0,0,4.6435,4.6471,4.6539,4.6603,4.6636,4.684,4.6737,4.674,4.6795,4.6786,4.6858,4.6864,4.6867,4.7022,4.7049,4.7138,4.6984,4.7417,4.7429,4.744,4.7538,4.7561,4.758,0,0,0,0,0,4.6423,4.6564,4.6542,4.6572,4.6721,4.6845,4.6864,4.6863,4.6803,4.6871,4.6899,4.6862,4.7112,4.7037,4.7068,4.7161,4.7412,4.7426,4.7439,4.7529,4.7556,4.758,0,0,0,0,0,0,4.651,4.6572,4.6549,4.6714,4.6775,4.6833,4.6919,4.6893,4.6973,4.6961,4.6958,4.6975,4.7125,4.7158,4.7074,4.7337,4.7252,4.7273,4.731,4.7337,4.7358,4.7347,4.6993,0,0,0,0,0,4.6549,4.6643,4.6692,4.6833,4.6865,4.6887,4.6941,4.6935,4.6998,4.7024,4.7063,4.7126,4.7218,4.728,4.7367,4.7543,4.7557,4.7622,4.7643,4.766,4.7677,4.7772,4.7801,4.749,4.749,4.749,0,0,4.6629,4.6674,4.6734,4.6852,4.6898,4.6996,4.6909,4.7017,4.709,4.704,4.718,4.7211,4.7281,4.7442,4.7515,4.7474,4.7766,4.7677,4.769,4.7699,4.7789,4.7818,4.7844,4.75,4.7498,4.7497,0,0,4.6825,4.6869,4.6991,4.7039,4.7109,4.7123,4.7152,4.7215,4.7233,4.7373,4.7337,4.7425,4.7585,4.7636,4.7683,4.7898,4.7867,4.7927,4.8037,4.8129,4.8154,4.8175,4.8252,4.8279,4.7945,4.7945,4.7945,0,4.6916,4.7062,4.7057,4.7168,4.7221,4.7179,4.7302,4.7349,4.7446,4.7483,4.7436,4.7634,4.7679,4.7851,4.7903,4.7943,4.7977,4.7919,4.815,4.8172,4.8192,4.8265,4.8294,4.7952,4.7951,4.795,4.795,0,4.717,4.7272,4.7362,4.7455,4.7518,4.7635,4.7648,4.7712,4.7701,4.772,4.7863,4.7915,4.8012,4.8052,4.8043,4.8223,4.8195,4.815,4.8064,4.8229,4.8297,4.8325,4.7961,4.7959,4.7957,4.7955,0,0,4.7426,4.7513,4.7546,4.7587,4.7662,4.7741,4.7856,4.7949,4.8004,4.8072,4.8168,4.8304,4.8262,4.8315,4.8311,4.8392,4.8558,4.8336,4.8338,4.8375,4.8759,4.8793,4.8825,4.8538,4.8543,4.8548,4.8753,0,4.7627,4.7826,4.7825,4.801,4.8104,4.8065,4.8165,4.8222,4.8243,4.8327,4.835,4.8446,4.8383,4.8415,4.8493,4.8522,4.8635,4.8507,4.8628,4.8632,4.861,4.8861,4.8897,4.9088,4.878,4.8784,4.8788,0,4.7888,4.7962,4.8156,4.8216,4.8255,4.8345,4.843,4.8511,4.8575,4.8584,4.8644,4.8627,4.8744,4.8656,4.8817,4.873,4.8779,4.8801,4.8808,4.8819,4.8719,4.8878,4.915,4.9178,4.883,4.8826,4.8823,0,4.8053,4.8203,4.8337,4.8374,4.8448,4.8511,4.8545,4.8604,4.866,4.8735,4.8771,4.886,4.8908,4.8977,4.8985,4.892,4.9148,4.906,4.9159,4.9159,4.9208,4.9205,4.9491,4.9242,4.9241,4.9241,4.924,0,4.8277,4.8397,4.8413,4.8496,4.8629,4.8627,4.8759,4.8788,4.884,4.8928,4.8901,4.8985,4.899,4.9076,4.9084,4.9216,4.9238,4.925,4.925,4.9252,4.925,4.9284,4.927,4.9248,4.9247,4.9245,4.9244,0,4.8484,4.8499,4.8644,4.8701,4.8719,4.8814,4.8864,4.8943,4.8961,4.9073,4.91,4.9129,4.9228,4.9243,4.9361,4.9365,4.9524,4.9511,4.9502,4.95,4.9598,4.9588,4.9915,4.9957,4.9681,4.9684,4.9686,0,4.8626,4.8717,4.8784,4.884,4.8877,4.8969,4.9025,4.9027,4.9088,4.9167,4.9237,4.9334,4.9411,4.9573,4.9605,4.9694,4.9683,4.9791,4.9696,4.9695,4.9683,4.9678,4.9686,4.9809,4.9812,4.9815,4.9817,0,4.8875,4.8878,4.896,4.9045,4.9113,4.9181,4.9244,4.9292,4.9302,4.9372,4.9473,4.9533,4.9652,4.9748,4.9837,4.9873,4.9847,4.9846,4.9874,4.9876,4.9867,4.9872,4.9551,4.9839,4.9837,4.9835,4.9834,4.9833,4.9053,4.9132,4.9191,4.9283,4.9331,4.9391,4.9468,4.9495,4.9579,4.9675,4.9672,4.9783,4.9844,4.996,5.0002,5.0089,5.0054,5.0094,5.0104,5.0114,5.0123,4.9854,5.0106,5.0105,5.0104,5.0104,5.0104,0,4.9299,4.9335,4.942,4.9509,4.9582,4.9551,4.9619,4.9682,4.978,4.9839,4.9915,5.0032,5.0125,5.0164,5.0256,5.0318,5.0309,5.0342,5.0337,5.0346,5.015,5.0116,5.0348,5.0348,5.0348,5.0348,5.0348,5.0348,4.9436,4.9568,4.9578,4.9733,4.9768,4.9875,4.9917,4.9972,5.0019,5.015,5.0226,5.0251,5.0302,5.0397,5.0482,5.0491,5.0525,5.0564,5.0568,5.0384,5.036,5.0336,5.0304,5.0572,5.0572,5.0757,5.0758,5.076]},{"header":{"parameterUnit":"m.s-1","parameterCategory":1,"la1":30.2991,"la2":30.254,"lo1":-89.0895,"lo2":-89.0444,"dy":0.0017,"dx":0.0017,"nx":28,"ny":28,"refTime":"2023-10-19T21:00:00:Z","depth":0,"parameterNumber":3,"parameterNumberName":"V-component_of_WINDS"},"data":[0,0,0,0,0,0,0,0,0,0,0,0,0,0,0,0,0,0,0,0,0,0,0,0,0,0,0,0,0,0,0,0,0,0,0,0,0,0,0,0,0,0,0,0,0,0,0,0,0,0,0,0,0,0,0,0,0,0,1.3214,1.3215,0,1.324,1.324,1.324,1.3223,1.3222,1.3221,1.3221,1.3247,1.3249,1.325,0,0,0,0,0,0,0,0,0,0,0,0,0,1.315,1.3152,1.3214,1.3215,1.3215,1.324,1.324,1.324,1.3223,1.3222,1.3221,1.322,1.3247,1.3248,1.325,0,0,0,0,0,0,0,0,0,0,0,0,0,1.3177,1.3152,1.3214,1.3209,1.3209,1.324,1.324,1.324,1.3223,1.3222,1.3221,1.322,1.3246,1.3248,1.325,1.3287,0,0,1.3257,1.3258,0,0,0,0,0,0,0,0,1.3176,1.318,1.321,1.321,1.321,1.3227,1.3227,1.3256,1.3224,1.3218,1.3221,1.3219,1.3241,1.3244,1.3251,1.3289,1.329,1.3257,1.3258,1.3259,1.326,0,0,0,0,0,0,0,1.3174,1.3178,1.3224,1.321,1.321,1.3206,1.3208,1.3233,1.3236,1.3218,1.3217,1.322,1.3241,1.3249,1.3252,1.329,1.3257,1.3259,1.326,1.3261,1.3357,1.3359,0,0,0,0,0,0,1.3172,1.3177,1.3224,1.3225,1.3189,1.3208,1.3211,1.3223,1.3236,1.3237,1.3221,1.3219,1.3246,1.3249,1.3253,1.3296,1.3259,1.3261,1.3263,1.3356,1.3358,1.3359,0,0,0,0,0,0,1.3171,1.3177,1.3223,1.3201,1.3206,1.321,1.3224,1.3224,1.3232,1.3238,1.3238,1.3229,1.3245,1.325,1.3278,1.3297,1.3262,1.3264,1.3355,1.3357,1.3358,1.3383,0,0,0,0,0,0,1.3169,1.3176,1.3191,1.3201,1.3207,1.3248,1.3225,1.3225,1.3235,1.3233,1.3245,1.3246,1.3245,1.3275,1.3281,1.3299,1.3266,1.3353,1.3355,1.3358,1.3381,1.3386,1.339,0,0,0,0,0,1.3167,1.3198,1.3192,1.3197,1.3226,1.325,1.3253,1.3251,1.3237,1.3251,1.3255,1.3246,1.3294,1.3278,1.3284,1.3304,1.3352,1.3355,1.3358,1.3379,1.3385,1.339,0,0,0,0,0,0,1.319,1.3199,1.3193,1.3227,1.3238,1.3247,1.3265,1.3257,1.3272,1.327,1.3266,1.3269,1.3299,1.3304,1.3287,1.3339,1.3321,1.3325,1.3335,1.3341,1.3345,1.3343,1.3268,0,0,0,0,0,1.3199,1.3218,1.3224,1.3254,1.326,1.3261,1.3272,1.3268,1.3279,1.3284,1.329,1.3301,1.3318,1.3329,1.3346,1.3381,1.3383,1.3397,1.3402,1.3406,1.3409,1.3427,1.3433,1.3368,1.3368,1.3368,0,0,1.3218,1.3225,1.3237,1.3259,1.3267,1.3286,1.3265,1.3287,1.3301,1.3287,1.3315,1.3319,1.3331,1.3363,1.3377,1.3368,1.3428,1.3409,1.3412,1.3414,1.3431,1.3437,1.3442,1.337,1.337,1.337,0,0,1.3262,1.327,1.3295,1.3302,1.3314,1.3315,1.332,1.333,1.3332,1.336,1.3349,1.3366,1.3396,1.3405,1.3413,1.3458,1.345,1.3463,1.3487,1.3505,1.351,1.3515,1.353,1.3536,1.3467,1.3467,1.3467,0,1.3284,1.3313,1.3309,1.333,1.334,1.3327,1.3352,1.336,1.3377,1.3383,1.3373,1.3409,1.3416,1.345,1.346,1.3468,1.3474,1.3462,1.351,1.3514,1.3518,1.3533,1.3539,1.3468,1.3468,1.3468,1.3468,0,1.3339,1.3359,1.3377,1.3393,1.3404,1.3428,1.3426,1.3438,1.3434,1.3435,1.3462,1.347,1.3487,1.3495,1.3491,1.3527,1.3521,1.351,1.3491,1.3526,1.354,1.3545,1.3471,1.347,1.347,1.3469,0,0,1.34,1.3411,1.3418,1.3424,1.3435,1.345,1.3472,1.3488,1.3498,1.351,1.3528,1.3553,1.3542,1.3551,1.3548,1.3564,1.3598,1.3551,1.3551,1.3559,1.3637,1.3645,1.3652,1.3592,1.3593,1.3594,1.3636,0,1.3444,1.3483,1.3478,1.3515,1.3532,1.352,1.3539,1.3548,1.3549,1.3564,1.3566,1.3583,1.3568,1.3573,1.3588,1.3591,1.3613,1.3587,1.3609,1.3609,1.3606,1.3659,1.3668,1.3707,1.3641,1.3642,1.3643,0,1.3502,1.3514,1.3552,1.3559,1.3566,1.3583,1.3597,1.3611,1.362,1.362,1.3629,1.3623,1.3644,1.3625,1.3654,1.3636,1.3644,1.3647,1.3648,1.365,1.3628,1.3662,1.372,1.3725,1.3651,1.3651,1.365,0,1.3541,1.3567,1.3593,1.3599,1.3608,1.362,1.3624,1.3632,1.3641,1.3653,1.3659,1.3673,1.3681,1.3692,1.3689,1.3675,1.3719,1.3699,1.3719,1.3719,1.3729,1.3729,1.3789,1.3735,1.3734,1.3734,1.3734,0,1.3591,1.3615,1.3611,1.3627,1.3652,1.3647,1.3672,1.3675,1.3682,1.3697,1.3688,1.3703,1.3698,1.3713,1.3711,1.3735,1.3738,1.3739,1.3738,1.3739,1.3739,1.3745,1.3742,1.3736,1.3736,1.3735,1.3735,0,1.3641,1.3639,1.3666,1.3671,1.3673,1.3692,1.3696,1.3711,1.3711,1.3731,1.3735,1.3735,1.3752,1.375,1.3769,1.3767,1.3796,1.3793,1.3793,1.3792,1.3812,1.381,1.3878,1.3886,1.3827,1.3828,1.3828,0,1.3673,1.3691,1.3697,1.3707,1.3711,1.3727,1.3736,1.3731,1.3741,1.3751,1.3765,1.378,1.3792,1.3819,1.382,1.3834,1.383,1.3853,1.3833,1.3833,1.383,1.3829,1.383,1.3857,1.3858,1.3859,1.3859,0,1.373,1.3728,1.3741,1.3754,1.3765,1.3775,1.3783,1.3792,1.3787,1.3799,1.3815,1.3824,1.3843,1.3858,1.387,1.3874,1.3866,1.3865,1.387,1.3873,1.3872,1.3872,1.3804,1.3864,1.3863,1.3863,1.3863,1.3863,1.3771,1.3786,1.3792,1.3807,1.3813,1.3821,1.3834,1.3835,1.3849,1.3863,1.3859,1.3877,1.3884,1.39,1.3905,1.3919,1.3911,1.3919,1.3921,1.3923,1.3925,1.387,1.3922,1.3922,1.3921,1.3921,1.3921,0,1.3827,1.383,1.3844,1.3856,1.3867,1.3857,1.3866,1.3876,1.3893,1.39,1.3911,1.3929,1.3943,1.3945,1.3959,1.3969,1.3966,1.3973,1.3972,1.3973,1.3932,1.3926,1.3976,1.3976,1.3976,1.3976,1.3976,1.3976,1.3858,1.3881,1.388,1.3906,1.3908,1.3926,1.3932,1.3939,1.3944,1.3964,1.3976,1.3977,1.3982,1.3995,1.4007,1.4007,1.4013,1.4021,1.402,1.3982,1.3976,1.3971,1.3965,1.4023,1.4023,1.406,1.406,1.4061]}]]